Flag for Germany Weather past 2 weeks in Erfurt, Thuringia, Germany

Now
46 °F

Sprinkles. Passing clouds.


Feels Like: 40 °F
Forecast: 36 / 42 °F
Wind: 16 mph from Northwest

Location: Erfurt-Bindersleben

Current Time: Dec 19, 2014 at 5:37:00 PM

Latest Report: Dec 19, 2014 at 5:20 PM


Visibility: N/A

Pressure: 29.86 "Hg

Humidity: 93%

Dew point: 45 °F

Location of ErfurtLocation

Historic Weather in Erfurt — Graph

°F

Erfurt temperature yesterday

Maximum temperature yesterday: 54 °F (at 8:20 PM)
Minimum temperature yesterday: 41 °F (at 12:20 AM)
Average temperature yesterday: 48 °F

Past Weeks' High & Low Weather Summary

 TemperatureHumidityPressure
High54 °F (Dec 18, 8:20 PM)100% (Dec 4, 4:20 PM)30.36 "Hg (Dec 4, 4:20 PM)
Low25 °F (Dec 9, 1:20 AM)75% (Dec 7, 12:50 PM)29.47 "Hg (Dec 12, 5:50 PM)
Average37 °F92%29.94 "Hg
* Reported Dec 4 4:20 PM — Dec 19 4:20 PM, Erfurt, Weather by CustomWeather, © 2014

Note: Actual official high and low records may vary slightly from our data, if they occured in-between our weather recording intervals... More about our weather records

Advertising

Erfurt weather history for previous 24 hours

 ConditionsComfort  
Time TempWeatherWind HumidityBarometerVisibility
4:20 PM
Dec 19
50 °FLight rain. Partly cloudy.21 mph88%29.80 "HgN/A
3:50 PM50 °FLight rain. Broken clouds.22 mph88%29.77 "HgN/A
3:20 PM50 °FLight rain. Broken clouds.23 mph88%29.80 "HgN/A
2:50 PM50 °FLight rain. Broken clouds.24 mph88%29.77 "HgN/A
2:20 PM50 °FLight rain. Broken clouds.22 mph82%29.80 "HgN/A
1:50 PM50 °FLight rain. Broken clouds.23 mph88%29.77 "HgN/A
1:20 PM50 °FLight rain. Broken clouds.23 mph88%29.80 "HgN/A
12:50 PM50 °FLight rain. Broken clouds.23 mph88%29.80 "HgN/A
12:20 PM50 °FLight rain. Broken clouds.23 mph88%29.83 "HgN/A
11:50 AM50 °FLight rain. More clouds than sun.25 mph88%29.80 "HgN/A
11:20 AM50 °FLight rain. Broken clouds.26 mph82%29.83 "HgN/A
10:50 AM50 °FPartly sunny.29 mph82%29.83 "HgN/A
10:20 AM50 °FBroken clouds.26 mph82%29.80 "HgN/A
9:50 AM50 °FBroken clouds.21 mph82%29.83 "HgN/A
9:20 AM50 °FPartly sunny.23 mph82%29.83 "HgN/A
8:50 AM50 °FPartly sunny.22 mph82%29.83 "HgN/A
8:20 AM50 °FPartly sunny.26 mph82%29.83 "HgN/A
7:50 AM50 °FPassing clouds.24 mph82%29.83 "HgN/A
7:20 AM52 °FPassing clouds.21 mph77%29.86 "HgN/A
6:50 AM50 °FPartly cloudy.20 mph82%29.86 "HgN/A
6:20 AM50 °FPassing clouds.18 mph82%29.86 "HgN/A
5:50 AM52 °FPassing clouds.20 mph77%29.86 "HgN/A
5:20 AM52 °FPassing clouds.22 mph77%29.86 "HgN/A
4:20 AM52 °FPassing clouds.23 mph82%29.86 "HgN/A
3:50 AM52 °FPassing clouds.22 mph82%29.89 "HgN/A
3:20 AM52 °FPassing clouds.23 mph82%29.86 "HgN/A
2:50 AM52 °FPassing clouds.22 mph82%29.89 "HgN/A
2:20 AM52 °FPassing clouds.23 mph82%29.86 "HgN/A
1:50 AM52 °FPassing clouds.25 mph82%29.86 "HgN/A
1:20 AM54 °FPassing clouds.25 mph77%29.86 "HgN/A
12:50 AM54 °FPassing clouds.24 mph77%29.86 "HgN/A
12:20 AM54 °FPassing clouds.26 mph77%29.86 "HgN/A
11:50 PM
Dec 18
54 °FPassing clouds.28 mph82%29.86 "HgN/A
11:20 PM54 °FPassing clouds.26 mph82%29.83 "HgN/A
10:50 PM54 °FPassing clouds.25 mph82%29.83 "HgN/A
10:20 PM54 °FPartly cloudy.24 mph82%29.83 "HgN/A
9:50 PM54 °FPassing clouds.25 mph88%29.83 "HgN/A
9:20 PM54 °FPassing clouds.24 mph88%29.83 "HgN/A
8:50 PM54 °FPassing clouds.20 mph88%29.83 "HgN/A
8:20 PM54 °FPassing clouds.21 mph82%29.83 "HgN/A
7:50 PM52 °FPartly cloudy.22 mph88%29.83 "HgN/A
7:20 PM52 °FLight rain. Partly cloudy.18 mph88%29.83 "HgN/A
6:50 PM52 °FLight rain. Partly cloudy.20 mph88%29.83 "HgN/A
6:20 PM52 °FPartly cloudy.15 mph88%29.83 "HgN/A
5:50 PM50 °FPassing clouds.16 mph94%29.83 "HgN/A
5:20 PM50 °FPassing clouds.16 mph88%29.83 "HgN/A
Weather by CustomWeather, © 2014

See weather overviewHow to use our weather pages